Погода в Маллингаре

Ирландия     53°31′33″N   7°20′16″W
темп.,
°C
ветер,
м/с
пор.,
м/с
влажн.,
%
обл.,
%
осадки,
мм/ч
давл.,
гПа
погр.,
м
20 апреля, вт
вт2001:00+6ю2386100 0.0 101849
04:00+7юв1280100 0.0 101860
07:00+6вюв1291100 0.3 101964
10:00+7всв1285100 0.0 1020154
13:00+10св3475100 0.3 1020830
16:00+9ссв4585100 0.3 1020543
19:00+8ссв4884100 0.4 1021462
22:00+7ссв487291 0.0 1022543
21 апреля, ср
ср2101:00+2ссв39875 0.0 1023222
04:000св24955 0.0 102269
07:00+3св268980 0.0 1022132
10:00+10в587741 0.0 1022875
13:00+12в677395 0.1 10231186
16:00+11в577798 0.3 1023786
19:00+10в58805 0.3 1024579
22:00+4в39965 0.0 1025185
22 апреля, чт
чт2201:00+3в35955 0.0 102680
04:00+3в22945 0.0 102621
07:00+3вюв22935 0.0 102733
10:00+10вюв35685 0.0 1027640
13:00+13вюв45525 0.0 10271254
16:00+13вюв45455 0.0 10261315
19:00+10в46660 0.0 1027405
22:00+3в34760 0.0 102867
23 апреля, пт
пт2301:00+2в36720 0.0 102897
04:00+2в36880 0.0 102793
07:00+3вюв359255 0.0 102783
10:00+10вюв5963100 0.0 1027718
13:00+13юв5946100 0.0 10261143
16:00+13юв5849100 0.0 10261130
19:00+11вюв4866100 0.0 1026412
22:00+6в4977100 0.0 1027172
24 апреля, сб
сб2401:00+6в3780100 0.0 1026121
04:00+5в3491100 0.0 102665
07:00+5в3692100 0.0 1027118
10:00+9в61170100 0.0 1021526
13:00+11вюв7962100 0.0 1021926
16:00+11вюв6964100 0.0 1022975
19:00+10в5974100 0.0 1022674
22:00+8всв3980100 0.0 1023244